| time (UTC) | temp C | wind direction | speed KPH | gust KPH | rain 1hr cm | rain 24hr cm | rain mn cm | humidity % | barometer mb |
| 20260506221609 | 17 | 1 | 6.4 | 12.9 | 0.00 | 0.18 | 0.18 | 69 | 992.0 |
| 20260506220104 | 17 | 37 | 4.8 | 9.7 | 0.00 | 0.18 | 0.18 | 69 | 992.2 |
| 20260506214548 | 17 | 1 | 1.6 | 8.0 | 0.00 | 0.18 | 0.18 | 70 | 992.3 |
| 20260506213100 | 17 | 288 | 0.0 | 12.9 | 0.00 | 0.18 | 0.18 | 71 | 992.1 |
| 20260506211540 | 16 | 359 | 3.2 | 9.7 | 0.00 | 0.18 | 0.18 | 70 | 992.4 |
| 20260506210046 | 16 | 5 | 4.8 | 12.9 | 0.00 | 0.18 | 0.18 | 69 | 992.5 |
| 20260506204537 | 16 | 46 | 4.8 | 14.5 | 0.00 | 0.18 | 0.18 | 70 | 992.5 |
| 20260506203034 | 16 | 23 | 3.2 | 9.7 | 0.00 | 0.18 | 0.18 | 69 | 992.7 |
| 20260506201538 | 16 | 27 | 1.6 | 14.5 | 0.00 | 0.18 | 0.18 | 71 | 992.6 |
| 20260506200031 | 16 | 15 | 3.2 | 8.0 | 0.00 | 0.18 | 0.18 | 72 | 993.1 |
| 20260506194530 | 15 | 11 | 3.2 | 11.3 | 0.00 | 0.18 | 0.18 | 72 | 993.3 |
| 20260506193029 | 15 | 12 | 3.2 | 12.9 | 0.00 | 0.18 | 0.18 | 73 | 993.7 |
| 20260506191530 | 15 | 19 | 3.2 | 9.7 | 0.00 | 0.18 | 0.18 | 73 | 993.4 |
| 20260506190031 | 15 | 360 | 0.0 | 11.3 | 0.00 | 0.18 | 0.18 | 74 | 993.5 |
| 20260506184531 | 14 | 40 | 3.2 | 12.9 | 0.00 | 0.18 | 0.18 | 75 | 993.4 |
| 20260506183034 | 14 | 11 | 6.4 | 16.1 | 0.00 | 0.18 | 0.18 | 75 | 992.0 |
| 20260506181527 | 14 | 33 | 4.8 | 14.5 | 0.00 | 0.18 | 0.18 | 76 | 992.1 |
| 20260506180031 | 13 | 96 | 4.8 | 20.9 | 0.00 | 0.18 | 0.18 | 78 | 992.8 |
| 20260506174528 | 13 | 23 | 3.2 | 14.5 | 0.00 | 0.18 | 0.18 | 80 | 992.7 |
| 20260506173025 | 12 | 80 | 3.2 | 19.3 | 0.00 | 0.18 | 0.18 | 81 | 992.9 |
| 20260506171534 | 12 | 344 | 6.4 | 20.9 | 0.00 | 0.18 | 0.18 | 83 | 992.6 |
| 20260506170018 | 12 | 20 | 4.8 | 14.5 | 0.00 | 0.18 | 0.18 | 84 | 993.1 |
| 20260506164522 | 12 | 346 | 4.8 | 17.7 | 0.00 | 0.18 | 0.18 | 84 | 993.3 |
| 20260506163015 | 12 | 42 | 3.2 | 11.3 | 0.00 | 0.18 | 0.18 | 85 | 993.5 |
| 20260506161513 | 12 | 22 | 0.0 | 11.3 | 0.13 | 0.18 | 0.18 | 85 | 993.7 |
| 20260506160016 | 12 | 210 | 0.0 | 12.9 | 0.18 | 0.18 | 0.18 | 86 | 992.4 |
| 20260506154512 | 12 | 10 | 4.8 | 14.5 | 0.18 | 0.18 | 0.18 | 86 | 992.3 |
| 20260506153008 | 12 | 18 | 4.8 | 12.9 | 0.15 | 0.15 | 0.15 | 86 | 993.1 |
| 20260506151505 | 12 | 311 | 0.0 | 6.4 | 0.05 | 0.05 | 0.05 | 82 | 995.0 |
| 20260506150002 | 12 | 55 | 3.2 | 9.7 | 0.00 | 0.00 | 0.00 | 79 | 994.1 |
| 20260506144604 | 12 | 359 | 1.6 | 16.1 | 0.00 | 0.00 | 0.00 | 79 | 993.5 |
| 20260506143058 | 12 | 53 | 3.2 | 12.9 | 0.00 | 0.00 | 0.00 | 79 | 992.1 |
| 20260506141554 | 12 | 301 | 1.6 | 8.0 | 0.00 | 0.00 | 0.00 | 79 | 993.4 |
| 20260506140052 | 12 | 359 | 4.8 | 14.5 | 0.00 | 0.00 | 0.00 | 79 | 993.0 |
| 20260506134548 | 12 | 14 | 3.2 | 11.3 | 0.00 | 0.00 | 0.00 | 79 | 992.6 |
| 20260506133046 | 12 | 1 | 3.2 | 17.7 | 0.00 | 0.00 | 0.00 | 79 | 992.2 |
| 20260506131551 | 12 | 6 | 6.4 | 17.7 | 0.00 | 0.00 | 0.00 | 78 | 992.0 |
| 20260506130041 | 12 | 1 | 1.6 | 8.0 | 0.00 | 0.00 | 0.00 | 79 | 991.8 |
| 20260506124539 | 12 | 295 | 1.6 | 11.3 | 0.00 | 0.00 | 0.00 | 78 | 991.7 |
| 20260506123035 | 12 | 19 | 3.2 | 11.3 | 0.00 | 0.00 | 0.00 | 76 | 991.7 |
| 20260506121534 | 12 | 344 | 3.2 | 9.7 | 0.00 | 0.00 | 0.00 | 75 | 991.5 |
| 20260506120030 | 12 | 336 | 1.6 | 11.3 | 0.00 | 0.00 | 0.00 | 73 | 991.2 |
| 20260506114535 | 13 | 16 | 0.0 | 14.5 | 0.00 | 0.00 | 0.00 | 73 | 991.1 |
| 20260506113023 | 13 | 359 | 4.8 | 16.1 | 0.00 | 0.00 | 0.00 | 73 | 990.8 |
| 20260506111519 | 13 | 359 | 3.2 | 9.7 | 0.00 | 0.00 | 0.00 | 72 | 990.4 |
| 20260506110021 | 13 | 314 | 1.6 | 12.9 | 0.00 | 0.00 | 0.00 | 72 | 990.2 |
| 20260506104514 | 13 | 321 | 4.8 | 9.7 | 0.00 | 0.00 | 0.00 | 72 | 990.0 |
| 20260506103011 | 13 | 84 | 1.6 | 9.7 | 0.00 | 0.00 | 0.00 | 72 | 989.8 |
| 20260506101511 | 13 | 44 | 3.2 | 14.5 | 0.00 | 0.00 | 0.00 | 71 | 989.5 |
| 20260506100016 | 14 | 56 | 1.6 | 9.7 | 0.00 | 0.00 | 0.00 | 71 | 989.2 |
| 20260506094505 | 14 | 39 | 3.2 | 9.7 | 0.00 | 0.00 | 0.00 | 72 | 989.0 |
| 20260506093002 | 14 | 23 | 1.6 | 9.7 | 0.00 | 0.00 | 0.00 | 73 | 988.9 |
| 20260506091502 | 14 | 26 | 3.2 | 11.3 | 0.00 | 0.00 | 0.00 | 73 | 988.8 |
| 20260506090059 | 14 | 26 | 0.0 | 9.7 | 0.00 | 0.00 | 0.00 | 73 | 988.7 |
| 20260506090001 | 14 | 1 | 0.0 | 9.7 | 0.00 | 0.00 | 0.00 | 73 | 988.7 |
| 20260506084604 | 14 | 7 | 4.8 | 11.3 | 0.00 | 0.00 | 0.00 | 73 | 988.7 |
| 20260506083056 | 15 | 21 | 1.6 | 6.4 | 0.00 | 0.00 | 0.00 | 73 | 988.5 |
| 20260506081554 | 15 | 6 | 4.8 | 16.1 | 0.00 | 0.00 | 0.00 | 74 | 988.4 |
| 20260506073047 | 15 | 5 | 4.8 | 16.1 | 0.00 | 0.00 | 0.00 | 73 | 987.7 |
| 20260506071554 | 15 | 65 | 6.4 | 12.9 | 0.00 | 0.00 | 0.00 | 74 | 987.9 |
| 20260506061537 | 16 | 15 | 4.8 | 12.9 | 0.00 | 0.00 | 0.00 | 74 | 987.9 |
| 20260506044533 | 17 | 326 | 3.2 | 16.1 | 0.00 | 0.00 | 0.00 | 74 | 987.8 |
| 20260506043026 | 17 | 355 | 4.8 | 12.9 | 0.00 | 0.00 | 0.00 | 74 | 987.8 |
| 20260506041521 | 18 | 335 | 1.6 | 11.3 | 0.00 | 0.00 | 0.00 | 74 | 987.6 |
| 20260506040019 | 18 | 8 | 3.2 | 16.1 | 0.00 | 0.00 | 0.00 | 74 | 987.5 |
| 20260506034518 | 18 | 335 | 6.4 | 12.9 | 0.00 | 0.00 | 0.00 | 74 | 987.0 |
| 20260506033013 | 19 | 51 | 1.6 | 11.3 | 0.00 | 0.00 | 0.00 | 73 | 986.8 |
| 20260506031516 | 20 | 349 | 3.2 | 11.3 | 0.00 | 0.00 | 0.00 | 72 | 986.6 |
| 20260506030002 | 20 | 1 | 4.8 | 16.1 | 0.00 | 0.00 | 0.00 | 71 | 986.5 |
| 20260506024600 | 20 | 72 | 1.6 | 9.7 | 0.00 | 0.00 | 0.00 | 71 | 986.4 |
| 20260506023054 | 21 | 302 | 1.6 | 9.7 | 0.00 | 0.00 | 0.00 | 70 | 985.9 |
| 20260506021559 | 21 | 49 | 3.2 | 14.5 | 0.00 | 0.00 | 0.00 | 69 | 985.2 |
| 20260506020049 | 21 | 62 | 3.2 | 9.7 | 0.00 | 0.00 | 0.00 | 68 | 985.1 |
| 20260506014556 | 21 | 4 | 3.2 | 12.9 | 0.00 | 0.00 | 0.00 | 68 | 984.5 |
| 20260506013044 | 21 | 333 | 1.6 | 9.7 | 0.00 | 0.00 | 0.00 | 67 | 984.4 |
| 20260506011544 | 22 | 303 | 1.6 | 19.3 | 0.00 | 0.00 | 0.00 | 67 | 984.4 |
| 20260506010050 | 22 | 25 | 3.2 | 11.3 | 0.00 | 0.00 | 0.00 | 65 | 984.1 |
| 20260506004548 | 23 | 12 | 1.6 | 11.3 | 0.00 | 0.00 | 0.00 | 64 | 983.7 |
| 20260506003042 | 23 | 21 | 3.2 | 12.9 | 0.00 | 0.00 | 0.00 | 63 | 983.5 |
| 20260506001537 | 24 | 13 | 1.6 | 11.3 | 0.00 | 0.00 | 0.00 | 62 | 983.0 |
| 20260506000038 | 25 | 308 | 3.2 | 14.5 | 0.00 | 0.00 | 0.00 | 61 | 982.8 |
| 20260505234536 | 26 | 61 | 1.6 | 12.9 | 0.00 | 0.00 | 0.00 | 60 | 982.7 |
| 20260505233032 | 27 | 312 | 4.8 | 12.9 | 0.00 | 0.00 | 0.00 | 58 | 982.5 |
| 20260505231532 | 28 | 337 | 6.4 | 14.5 | 0.00 | 0.00 | 0.00 | 56 | 982.4 |
| 20260505230041 | 28 | 266 | 3.2 | 14.5 | 0.00 | 0.00 | 0.00 | 54 | 982.2 |
| 20260505224534 | 29 | 323 | 3.2 | 14.5 | 0.00 | 0.00 | 0.00 | 53 | 981.7 |
| 20260505223027 | 30 | 276 | 4.8 | 12.9 | 0.00 | 0.00 | 0.00 | 48 | 981.8 |